Location: Delettes
(50.6178°N, 2.2123°E)
Time: 04:21:17
(UTC+00:00)

Cosmos 2279 Rocket - Pass Details

Date: 27 February 2020
Orbit: 963 x 980 km, 82.9° (Epoch: 29 March)

Event Time Altitude Azimuth Distance (km) Brightness Sun altitude
Exits shadow 20:40:11 62° 15° (NNE) 1,088 4.1 -30.5°
Drops below altitude 10° 20:45:16 10° 11° (N) 2,720 6.5 -31.2°
Sets 20:47:47 0° 11° (N) 3,669 7.2 -31.5°
